Location: Newark
(41.9000°N, 12.4833°E)
Time: 16:54:05
(UTC+00:00)

EO-79 - Pass Details

Date: 24 May 2019
Orbit: 591 x 611 km, 97.9° (Epoch: 15 June)

Event Time Altitude Azimuth Distance (km) Brightness Sun altitude
Rises 01:11:39 0° 349° (N) 2,840 ? -21.1°
Reaches altitude 10° 01:15:49 10° 308° (NW) 1,929 ? -20.7°
Maximum altitude 01:16:28 10° 299° (WNW) 1,906 ? -20.6°
Drops below altitude 10° 01:17:07 10° 290° (WNW) 1,926 ? -20.5°
Enters shadow 01:17:14 10° 289° (WNW) 1,933 ? -20.5°
